GLOBALSTAR M086 (38045 NORAD) Tracking and Keplerian Element Data

This shows tracking and keplerian element data for the satellite.

Feedback or suggestion? Click here.




ElementValue
Catalog38045
NameGLOBALSTAR M086
Epoch Orbit60686
Epoch Day35.16389774
Epoch Year2025
RAAN44.9567
Inclination51.9906
Eccentricity9.74E-05
Argument of Perigee44.5129
Mean Anonmoly30.0653
Mean Motion12.62266278
Decay Rate-9.9E-07
L11 38045U 11080F 25035.16389774 -.00000099 00000+0 27473-4 0 9995
L22 38045 51.9906 44.9567 0000974 44.5129 30.0653 12.62266278606867



Live tracking and technical data element details for GLOBALSTAR M086 (NORAD 38045). GLOBALSTAR M086 can be tracked NOW for your location showing map with azimuth and elevation plus other details from your city location.







IsCatalogInMostPopularTable: catalog: 38045, numindb: 372
Update: records affected: 1



GetName: 38045 GLOBALSTAR M086

Hit Count: updated at: Sat, 17 May 2025 09:53:53 GMT